weather.gov     
National Weather Service

Terminal Aerodrome Forecast
NWS Homepage
This page is being discontinued on March 12, 2014.
The same data is available at this site. Please update your bookmarks.
Thank you, and we apologize for the inconvenience.
Please send an email to SR-SRH.Webmaster@noaa.gov with any concerns.


Current Version
Previous Version:    01  02  03  04  05  06  07  08  09  10  11  12  13  14  15  16  17  18  19  20  21  22  23  
[Printable]
308
FTPA31 PHFO 291700
TAFOGG
TAF
PHOG 291737Z 2918/3018 VRB05KT P6SM FEW030 SCT050
     FM292000 03013KT P6SM FEW030 SCT050
     FM300600 03007KT P6SM SCT030 BKN050
      AMD LTD TO WX VIS AND WIND 3009/3016=


U.S. Dept. of Commerce
NOAA National Weather Service
1325 East West Highway
Silver Spring, MD 20910
E-mail: w-nws.webmaster@noaa.gov
Page last modified: May 16, 2007
NATIONAL WEATHER SERVICE: for Safety, for Work, for Fun - FOR LIFE